TimePDT,TemperatureF,Dew PointF,Humidity,Sea Level PressureIn,VisibilityMPH,Wind Direction,Wind SpeedMPH,Gust SpeedMPH,PrecipitationIn,Events,Conditions,WindDirDegrees,DateUTC
12:53 AM,37.0,30.9,79,30.02,10.0,SW,12.7,-,0.00,,Scattered Clouds,230,2013-03-21 07:53:00
1:53 AM,37.0,30.0,76,30.04,10.0,WSW,8.1,-,N/A,,Partly Cloudy,240,2013-03-21 08:53:00
2:53 AM,37.0,28.9,73,30.05,10.0,West,10.4,-,N/A,,Partly Cloudy,260,2013-03-21 09:53:00
3:53 AM,37.0,28.9,73,30.07,10.0,WSW,9.2,-,N/A,,Scattered Clouds,240,2013-03-21 10:53:00
4:53 AM,37.0,28.9,73,30.08,10.0,West,5.8,-,N/A,,Partly Cloudy,260,2013-03-21 11:53:00
5:53 AM,36.0,28.9,76,30.09,10.0,West,6.9,-,N/A,,Mostly Cloudy,260,2013-03-21 12:53:00
6:53 AM,37.0,30.0,76,30.12,10.0,WNW,5.8,-,N/A,,Overcast,290,2013-03-21 13:53:00
7:53 AM,37.0,30.9,79,30.13,10.0,West,6.9,-,N/A,,Overcast,270,2013-03-21 14:53:00
8:53 AM,37.9,33.1,83,30.14,10.0,WNW,6.9,-,N/A,,Overcast,290,2013-03-21 15:53:00
9:53 AM,41.0,34.0,76,30.15,10.0,West,8.1,-,0.00,,Overcast,270,2013-03-21 16:53:00
10:50 AM,39.2,33.8,81,30.18,10.0,WNW,18.4,24.2,0.01,Rain,Light Rain,290,2013-03-21 17:50:00
10:53 AM,39.0,34.0,82,30.19,10.0,WNW,12.7,24.2,0.01,Rain,Light Rain,300,2013-03-21 17:53:00
11:08 AM,37.0,34.0,89,30.18,10.0,WNW,12.7,-,0.00,Rain,Light Rain,290,2013-03-21 18:08:00
11:21 AM,37.9,35.1,89,30.18,10.0,West,10.4,-,0.00,,Overcast,260,2013-03-21 18:21:00
11:53 AM,44.1,36.0,73,30.17,10.0,WNW,9.2,-,0.00,,Scattered Clouds,290,2013-03-21 18:53:00
12:53 PM,42.1,34.0,73,30.18,10.0,NW,9.2,-,N/A,,Overcast,320,2013-03-21 19:53:00
1:20 PM,37.0,32.0,82,30.19,10.0,West,13.8,28.8,0.01,Snow,Light Snow,280,2013-03-21 20:20:00
1:45 PM,42.1,36.0,79,30.17,10.0,West,11.5,-,0.01,,Overcast,280,2013-03-21 20:45:00
1:53 PM,42.1,35.1,76,30.18,10.0,West,10.4,-,0.01,,Overcast,270,2013-03-21 20:53:00
2:37 PM,37.9,35.1,89,30.17,7.0,WNW,13.8,-,0.02,Rain,Light Rain,300,2013-03-21 21:37:00
2:53 PM,39.0,37.0,93,30.17,10.0,WSW,9.2,-,0.03,,Overcast,250,2013-03-21 21:53:00
3:02 PM,39.0,36.0,89,30.16,10.0,West,6.9,-,N/A,,Overcast,260,2013-03-21 22:02:00
3:18 PM,37.9,34.0,86,30.17,6.0,WNW,11.5,-,0.02,Rain,Rain,300,2013-03-21 22:18:00
3:25 PM,37.0,34.0,89,30.17,4.0,WNW,13.8,-,0.03,Rain,Rain,290,2013-03-21 22:25:00
3:41 PM,37.9,35.1,89,30.17,10.0,WSW,8.1,-,0.04,Rain,Light Rain,250,2013-03-21 22:41:00
3:53 PM,37.9,36.0,93,30.17,8.0,WSW,8.1,-,0.06,Rain,Light Rain,240,2013-03-21 22:53:00
4:07 PM,41.0,37.0,86,30.16,10.0,WSW,6.9,-,0.00,,Mostly Cloudy,250,2013-03-21 23:07:00
4:53 PM,41.0,34.0,76,30.18,10.0,West,12.7,-,0.00,,Mostly Cloudy,270,2013-03-21 23:53:00
5:53 PM,42.1,32.0,67,30.17,10.0,West,13.8,-,0.00,,Clear,280,2013-03-22 00:53:00
6:53 PM,39.9,28.9,65,30.17,10.0,West,12.7,-,N/A,,Clear,270,2013-03-22 01:53:00
7:53 PM,39.0,28.0,65,30.19,10.0,West,12.7,-,N/A,,Scattered Clouds,260,2013-03-22 02:53:00
8:46 PM,37.0,30.0,76,30.19,10.0,West,11.5,-,0.00,Rain,Light Rain,280,2013-03-22 03:46:00
8:53 PM,37.0,30.0,76,30.20,10.0,West,9.2,-,0.00,,Mostly Cloudy,270,2013-03-22 03:53:00
9:53 PM,37.0,27.0,67,30.20,10.0,West,15.0,-,N/A,,Clear,270,2013-03-22 04:53:00
10:53 PM,37.9,28.0,68,30.21,10.0,West,8.1,-,N/A,,Overcast,270,2013-03-22 05:53:00
11:53 PM,39.9,28.0,63,30.21,10.0,West,12.7,-,0.00,,Overcast,270,2013-03-22 06:53:00